Wetbulb
61.95 62.06 61.61 61.47 61.14 61.16 61.50 61.15 60.52 59.76 59.48 59.21 59.23 59.05 59.38 59.90 59.83 59.05 58.18 57.68 57.73 57.95 57.99 58.20 58.64 58.67 61.16 54.48 55.36 63.39 63.41 62.96 62.26 61.27 58.57 57.32 55.81 55.40 53.15 53.92 54.11 52.78 53.44 54.08 55.18 55.20 55.33
61.40 61.34 60.98 60.87 60.83 60.81 61.24 60.93 60.07 59.44 59.19 58.93 58.70 58.55 58.57 58.84 58.99 58.64 58.10 57.46 57.20 57.08 57.48 57.94 58.70 58.01 57.95 50.40 60.15 63.21 61.66 60.88 60.30 59.90 59.08 59.11 56.90 57.07 54.61 53.44 52.82 53.68 53.38 53.99 54.87 55.17 55.63
61.86 61.12 60.77 60.17 60.07 60.34 60.39 59.71 59.44 59.26 58.99 58.84 58.66 58.33 58.05 58.23 58.15 57.97 57.75 57.23 56.65 56.73 57.35 57.95 58.52 59.86 57.26 53.62 61.57 62.38 60.87 59.49 60.57 59.71 58.49 58.64 58.43 56.33 55.82 53.52 54.96 53.72 51.30 53.41 53.50 53.41 53.06
61.59 61.44 61.17 60.11 59.69 59.43 59.25 59.11 59.21 59.17 58.91 58.79 58.88 58.23 57.62 57.30 57.20 57.00 56.82 56.36 56.21 56.68 57.29 57.73 58.17 59.67 53.43 59.41 62.98 60.96 61.59 60.30 60.77 60.84 59.46 59.88 59.43 57.36 55.71 56.32 54.48 51.68 51.51 48.88 51.87 53.18 52.71
58.95 59.13 59.11 58.87 59.05 59.17 58.98 58.76 58.78 59.06 59.12 58.85 58.65 58.17 57.50 56.78 56.54 56.34 56.14 56.08 56.03 56.79 57.15 57.29 59.86 59.46 52.36 59.67 58.44 61.33 62.50 59.00 59.67 59.80 59.97 58.84 58.77 55.65 54.83 52.23 50.76 50.90 47.38 47.38 49.31 53.83 53.35
58.63 58.07 57.89 58.16 58.01 57.68 57.64 58.53 58.60 58.38 58.22 58.10 58.24 58.12 57.68 56.78 56.36 55.82 54.97 55.55 56.63 56.87 59.05 59.39 58.14 54.16 56.28 53.83 58.87 58.95 60.83 59.93 58.27 58.08 56.86 56.77 56.02 52.93 53.02 51.22 45.74 46.37 46.35 48.25 48.54 52.46 53.35
58.13 57.41 57.22 57.00 57.39 57.35 57.98 57.44 56.24 56.43 57.17 58.06 58.02 57.96 57.60 56.88 56.80 55.58 57.57 59.23 55.50 54.71 56.66 52.93 52.64 52.66 53.58 56.88 58.39 56.51 59.22 58.20 58.17 56.34 51.97 53.93 50.74 48.59 50.57 51.48 50.54 49.07 47.40 46.62 50.39 52.98 51.19
57.26 56.92 56.03 55.84 56.82 57.33 57.65 57.93 56.65 55.40 55.27 55.59 56.11 56.84 57.18 56.94 56.40 55.52 59.19 54.35 54.75 56.29 51.80 56.19 55.74 55.25 56.28 56.48 51.97 55.47 59.46 55.31 54.49 50.87 52.89 50.78 47.93 51.12 51.59 51.00 49.46 48.83 47.59 48.06 50.93 51.86 50.94
56.37 56.13 56.37 56.11 55.65 55.84 57.47 57.50 57.04 55.56 55.31 55.10 55.05 56.22 56.08 56.06 55.96 58.87 57.02 56.81 61.47 59.72 51.58 52.99 54.90 54.13 54.80 56.21 53.07 53.75 56.82 55.52 52.82 50.73 50.75 49.07 49.29 50.80 49.12 48.86 47.74 48.63 47.61 48.18 48.16 50.81 52.44
56.00 55.76 55.80 56.21 56.23 56.53 56.61 56.89 56.82 55.86 55.07 54.75 54.77 55.19 55.31 54.89 56.82 57.50 56.68 61.25 62.25 59.62 48.59 49.59 49.94 53.83 54.14 54.13 50.22 55.16 56.04 54.19 51.88 48.89 50.17 49.65 51.65 49.50 48.74 47.67 49.10 46.12 50.73 49.65 48.67 47.62 44.96
55.13 55.27 55.48 55.76 55.76 55.01 53.99 55.26 55.58 55.07 54.71 54.24 54.12 54.59 54.74 56.26 56.73 55.09 59.40 61.15 61.63 58.79 37.70 48.42 49.72 57.35 54.73 50.58 51.64 52.13 55.69 53.66 48.77 49.07 50.08 46.54 48.68 48.20 47.19 48.08 50.41 47.59 50.30 49.04 48.94 48.02 47.99
54.44 54.40 54.61 54.81 54.36 54.42 54.61 54.93 54.99 54.61 54.12 54.06 53.24 53.50 55.32 56.68 58.45 57.93 59.57 61.56 58.23 45.38 37.41 45.40 50.69 50.41 50.18 51.07 51.32 53.13 52.12 55.09 53.66 49.43 50.09 48.81 52.20 50.77 49.34 50.74 51.36 51.68 49.90 49.31 49.32 48.26 41.77
54.09 54.28 54.32 54.18 53.97 53.87 54.42 54.34 53.96 53.81 53.57 53.61 52.46 53.19 55.80 59.23 55.60 58.79 58.27 56.02 43.28 38.00 47.04 44.45 45.46 49.53 49.47 48.85 49.66 50.35 49.50 49.01 48.18 44.22 44.64 47.83 48.55 51.32 50.97 48.37 51.12 49.95 47.51 41.39 39.69 40.28 39.71
53.60 53.60 53.60 53.79 53.71 53.60 53.56 53.40 53.07 52.97 52.78 52.69 51.66 52.50 54.34 59.10 59.71 59.23 55.38 46.43 36.54 42.68 45.13 46.95 46.58 46.92 45.45 47.97 48.29 48.39 47.88 47.04 49.96 48.34 46.35 43.45 41.65 48.93 51.28 49.63 48.12 47.91 47.41 41.12 34.42 37.00 40.59
53.07 53.07 53.38 53.26 53.38 53.38 53.22 53.15 52.91 52.73 52.38 52.08 52.26 55.14 55.02 56.97 59.94 59.64 51.63 38.61 39.83 44.16 46.09 44.84 45.48 43.49 43.90 46.29 47.01 47.18 47.03 46.62 48.03 49.69 44.46 43.70 42.98 50.41 50.69 51.68 51.35 47.84 46.09 49.28 43.73 42.61 40.06
52.92 52.74 52.68 52.79 52.92 53.02 52.89 52.77 52.75 52.59 52.22 51.94 51.57 50.85 51.27 58.50 59.74 56.02 46.78 40.60 44.09 48.04 46.89 46.26 42.83 44.58 42.23 44.80 44.96 45.81 45.61 49.74 48.47 50.04 51.19 47.53 41.95 48.31 50.00 51.47 51.64 49.82 50.49 43.61 45.59 35.10 34.32
52.34 52.39 52.45 52.40 52.39 52.41 52.45 52.51 52.33 52.29 52.10 52.08 50.94 43.93 52.03 59.58 58.23 50.53 41.97 42.45 45.95 48.59 48.01 45.34 44.18 43.68 44.99 44.40 46.52 45.49 45.68 49.32 50.72 50.98 50.95 49.77 46.67 45.93 49.07 47.20 46.39 48.24 46.67 45.68 45.00 41.80 35.95
51.46 51.73 51.78 51.77 51.96 51.88 52.17 52.38 52.13 52.05 51.66 50.13 48.66 39.99 54.10 58.35 45.90 46.78 41.65 43.78 46.41 47.30 47.73 46.39 46.93 45.99 45.27 45.62 44.52 44.54 45.16 48.99 51.64 51.95 48.63 50.44 47.38 43.16 44.57 49.06 50.17 49.05 46.24 45.02 40.21 36.41 38.88
51.33 51.43 51.41 51.44 51.48 51.36 51.70 52.05 51.93 51.65 51.69 50.48 44.23 46.38 54.26 54.29 39.94 41.68 45.07 44.62 45.98 44.38 45.71 45.25 44.44 46.30 46.88 44.57 41.47 44.66 47.25 50.02 51.37 51.10 49.67 50.81 46.46 40.94 42.03 45.65 48.62 45.95 46.70 45.97 44.66 41.25 36.18
50.87 51.12 51.14 51.24 51.26 51.03 51.11 51.43 51.51 51.57 51.75 50.87 45.54 38.14 44.34 47.86 46.59 43.51 42.05 42.36 41.88 46.22 45.29 45.29 44.20 46.35 44.98 43.14 45.98 43.79 45.88 49.36 50.84 50.56 47.30 50.60 46.87 42.84 38.73 41.55 44.88 41.80 44.03 46.03 44.71 38.04 39.27
50.31 50.59 50.51 50.77 50.97 50.91 50.67 50.89 51.34 51.44 50.73 50.16 45.72 41.41 44.49 37.29 40.12 42.72 44.47 43.41 42.68 41.36 45.38 46.32 44.06 44.59 43.92 40.10 42.88 43.44 46.46 47.33 49.48 48.96 49.87 48.67 41.61 43.71 43.94 44.38 44.55 43.45 43.18 44.08 42.73 43.44 38.61
49.84 49.88 49.93 50.11 50.37 50.45 50.58 50.55 50.89 51.04 50.50 48.54 42.02 41.58 44.09 43.96 44.48 41.64 42.02 41.54 42.13 43.79 45.00 43.51 43.47 45.23 45.84 43.66 44.03 42.32 45.12 45.03 44.17 47.85 47.19 48.33 41.93 41.74 33.98 42.57 42.58 40.22 43.47 44.20 43.99 43.67 43.56
49.33 49.40 49.67 49.92 50.05 50.21 50.42 50.41 50.29 50.84 50.24 47.09 47.26 48.30 46.35 40.41 42.85 42.23 40.93 41.70 41.80 45.00 46.61 47.12 45.78 45.09 44.36 46.41 48.70 48.95 49.08 48.71 47.41 45.80 44.98 44.43 42.83 39.20 35.59 40.91 40.23 36.49 41.49 43.18 44.06 45.48 44.91
49.19 49.55 49.76 49.76 49.95 50.25 50.23 50.13 50.12 50.71 50.46 48.96 47.89 47.16 43.15 37.47 40.82 41.31 42.27 43.37 42.96 43.72 43.15 46.17 47.64 46.02 48.06 51.52 50.70 49.70 48.33 47.38 47.56 47.17 48.13 43.06 41.96 41.66 36.67 39.40 30.66 41.71 46.37 45.90 44.05 45.13 46.99
48.75 49.07 49.52 49.87 49.76 49.92 49.69 49.73 49.84 50.15 50.47 49.17 48.61 46.21 42.99 37.19 41.45 41.63 42.71 43.23 44.92 46.26 44.46 44.66 45.62 47.37 51.90 49.28 43.27 39.88 40.30 41.11 42.89 45.56 45.63 45.39 41.71 38.78 35.70 35.92 39.74 41.60 44.16 43.74 42.48 42.40 43.13
48.42 48.79 49.23 49.31 49.16 49.16 49.38 49.46 49.57 49.88 50.19 51.06 46.39 50.31 45.60 39.84 38.52 42.85 42.20 44.70 43.55 43.52 44.52 46.00 47.53 50.44 50.52 46.20 41.93 34.97 33.35 37.38 37.21 38.61 42.59 42.09 42.65 38.63 36.87 32.15 29.39 40.86 42.25 43.07 44.60 38.24 40.52
48.08 48.37 48.85 48.83 48.44 48.53 48.64 49.01 49.19 49.64 50.13 50.92 49.40 48.35 45.83 40.14 43.16 43.63 41.51 42.38 46.38 45.82 43.58 42.37 46.02 46.86 49.31 43.14 36.54 36.53 34.91 40.48 35.51 36.38 35.18 36.67 36.82 34.69 34.78 33.92 38.55 45.34 43.95 44.64 35.99 39.66 39.55
47.47 47.89 48.10 47.96 48.03 47.98 48.19 48.47 48.94 49.30 49.73 49.96 48.35 49.69 44.06 42.01 43.04 44.62 44.91 44.71 45.95 46.03 42.10 44.10 44.24 43.43 42.95 38.65 38.71 37.15 37.10 40.00 39.02 41.09 38.74 37.82 36.33 35.48 36.41 34.18 31.06 44.74 42.80 39.81 43.36 42.61 40.86
47.03 47.12 47.36 47.35 47.41 47.47 47.81 48.10 48.62 48.98 49.53 49.58 46.64 49.27 45.94 43.92 40.13 43.46 45.03 44.72 46.18 47.29 47.21 46.23 44.97 45.74 46.75 43.03 43.10 42.76 40.05 42.06 40.06 35.02 44.10 37.76 41.87 40.26 40.71 40.59 44.75 45.20 45.60 45.77 44.49 44.35 40.76
MSLP
1018.30 1018.65 1019.13 1019.47 1019.87 1020.16 1020.17 1020.45 1020.69 1020.78 1020.83 1020.87 1021.08 1021.03 1020.89 1020.80 1020.61 1020.23 1019.94 1019.56 1019.20 1018.85 1018.60 1018.19 1017.52 1016.80 1015.31 1014.27 1013.55 1014.28 1014.73 1014.57 1014.13 1013.97 1013.18 1012.64 1012.26 1011.94 1011.32 1011.49 1011.69 1011.76 1011.59 1011.53 1011.14 1011.06 1010.85
1017.93 1018.31 1018.61 1019.07 1019.47 1019.87 1020.08 1020.15 1020.56 1020.71 1020.75 1020.73 1020.93 1020.88 1020.66 1020.73 1020.51 1020.05 1019.86 1019.46 1018.95 1018.73 1018.38 1018.02 1017.49 1016.97 1015.65 1014.18 1013.87 1014.20 1014.32 1014.30 1013.53 1013.38 1013.14 1012.83 1012.22 1012.29 1011.86 1011.86 1011.69 1011.68 1011.72 1011.34 1010.94 1010.35 1010.29
1017.53 1018.21 1018.36 1018.61 1019.05 1019.49 1019.73 1019.97 1020.25 1020.59 1020.69 1020.62 1020.74 1020.83 1020.52 1020.43 1020.29 1019.94 1019.86 1019.23 1018.67 1018.35 1018.16 1017.70 1017.42 1016.67 1015.43 1013.88 1013.79 1014.16 1014.29 1013.86 1013.69 1013.25 1012.89 1013.11 1012.88 1012.41 1012.11 1011.51 1011.94 1011.71 1011.36 1010.61 1010.21 1010.29 1010.36
1017.16 1017.86 1018.15 1018.37 1018.69 1019.14 1019.49 1019.77 1020.06 1020.34 1020.55 1020.69 1020.68 1020.72 1020.43 1020.27 1020.29 1019.75 1019.63 1019.19 1018.37 1018.14 1017.66 1017.46 1017.25 1016.59 1014.60 1014.08 1013.93 1013.94 1013.96 1013.62 1013.75 1013.53 1013.28 1013.23 1013.11 1012.62 1012.31 1011.85 1011.52 1011.11 1011.00 1009.85 1010.23 1010.06 1010.47
1017.43 1017.75 1018.12 1018.32 1018.61 1019.02 1019.26 1019.48 1019.83 1020.23 1020.23 1020.54 1020.68 1020.76 1020.22 1020.24 1020.16 1019.69 1019.16 1018.90 1017.98 1017.92 1017.31 1017.44 1016.75 1016.12 1014.15 1014.32 1013.91 1013.25 1013.31 1013.17 1013.32 1013.36 1013.25 1013.29 1013.09 1012.54 1012.57 1011.52 1010.71 1010.75 1009.90 1010.08 1009.82 1009.96 1010.08
1017.34 1018.01 1018.18 1018.51 1018.88 1018.91 1019.24 1019.34 1019.65 1019.99 1020.21 1020.35 1020.48 1020.67 1020.27 1020.23 1019.90 1019.71 1018.75 1017.86 1017.50 1017.55 1017.18 1017.02 1016.57 1016.31 1014.45 1013.66 1013.46 1013.35 1013.28 1013.39 1013.09 1013.02 1013.02 1012.89 1012.64 1012.32 1011.85 1011.28 1010.06 1010.26 1010.44 1010.35 1009.79 1009.74 1009.79
1017.33 1017.88 1018.37 1018.65 1018.98 1019.19 1019.52 1019.34 1019.75 1019.95 1020.03 1020.32 1020.44 1020.56 1020.21 1020.06 1019.85 1019.71 1018.41 1017.03 1017.40 1016.84 1016.31 1015.70 1015.45 1014.80 1013.98 1013.59 1013.69 1012.97 1012.90 1013.06 1013.00 1012.82 1012.49 1012.66 1012.16 1011.47 1011.24 1011.33 1011.67 1011.55 1011.24 1010.78 1010.16 1009.79 1009.98
1016.89 1017.67 1018.03 1018.38 1019.07 1019.11 1019.42 1019.54 1019.67 1019.91 1020.05 1020.22 1020.38 1020.56 1020.20 1019.85 1019.85 1019.69 1018.78 1017.85 1018.61 1019.06 1016.84 1015.32 1015.01 1014.66 1014.28 1014.23 1013.46 1012.81 1012.86 1012.63 1012.56 1012.19 1012.52 1012.85 1011.82 1011.85 1012.02 1012.17 1012.20 1011.81 1011.22 1010.62 1009.93 1010.13 1010.23
1016.56 1017.17 1017.58 1018.07 1018.57 1018.95 1019.04 1019.52 1019.63 1019.89 1019.94 1020.15 1020.31 1020.59 1020.23 1020.11 1019.81 1019.37 1018.76 1018.63 1018.56 1018.81 1017.44 1014.92 1014.66 1014.13 1013.89 1014.01 1012.95 1012.41 1012.51 1011.94 1011.98 1012.08 1012.41 1012.05 1011.70 1012.59 1012.56 1012.15 1012.11 1011.65 1011.29 1010.82 1010.32 1010.00 1009.69
1016.17 1016.86 1017.40 1017.82 1018.06 1018.56 1018.65 1019.26 1019.63 1019.81 1019.92 1020.12 1020.04 1020.45 1020.33 1020.22 1020.19 1019.48 1018.77 1018.72 1018.81 1018.77 1017.17 1014.45 1014.07 1013.56 1013.85 1013.69 1012.94 1012.68 1012.39 1012.08 1012.08 1011.91 1012.23 1011.95 1011.80 1012.34 1012.23 1011.91 1011.81 1011.10 1011.02 1010.98 1010.41 1010.13 1009.05
1015.77 1016.26 1016.83 1017.36 1017.86 1017.96 1018.42 1019.16 1019.55 1019.54 1019.98 1019.96 1019.84 1020.23 1020.50 1020.37 1020.25 1019.81 1019.62 1019.18 1018.97 1018.91 1016.21 1014.15 1013.61 1013.60 1013.49 1013.22 1012.64 1012.61 1012.71 1012.38 1011.79 1012.01 1012.50 1011.43 1011.85 1011.84 1011.57 1011.28 1011.40 1010.87 1011.34 1011.08 1010.57 1010.10 1009.66
1015.24 1015.63 1016.17 1016.92 1017.32 1017.90 1018.66 1019.01 1019.28 1019.34 1019.73 1019.81 1020.17 1020.22 1020.42 1020.48 1020.53 1020.26 1020.12 1019.27 1019.09 1018.44 1015.29 1013.73 1013.24 1013.19 1013.10 1012.87 1012.46 1012.39 1012.47 1012.51 1012.25 1012.06 1012.13 1011.78 1012.03 1012.05 1011.41 1011.43 1011.35 1011.35 1011.13 1011.01 1010.86 1010.19 1009.48
1014.64 1015.28 1015.90 1016.46 1017.31 1017.97 1018.41 1018.58 1018.84 1019.33 1019.87 1020.11 1020.27 1020.54 1020.37 1020.12 1020.45 1020.08 1020.58 1020.13 1019.46 1017.26 1014.97 1013.73 1013.27 1013.07 1012.55 1012.53 1012.51 1012.28 1012.25 1012.18 1011.60 1011.74 1011.62 1011.69 1011.62 1011.59 1011.94 1011.46 1011.17 1011.45 1011.12 1010.41 1010.01 1009.91 1008.89
1014.29 1015.16 1015.74 1016.22 1017.13 1017.57 1018.07 1018.49 1018.77 1019.31 1019.76 1020.05 1020.30 1020.44 1020.37 1019.89 1020.40 1020.23 1020.76 1020.70 1018.50 1016.07 1014.74 1014.21 1013.72 1013.32 1012.60 1012.56 1012.63 1012.48 1012.38 1012.03 1012.29 1011.91 1011.53 1011.31 1011.49 1011.77 1012.02 1011.57 1011.13 1011.19 1011.09 1010.84 1010.17 1009.97 1009.35
1013.92 1014.62 1015.57 1016.09 1016.66 1017.13 1017.76 1018.32 1018.73 1019.14 1019.59 1019.83 1020.28 1020.15 1020.18 1019.95 1020.09 1019.93 1020.47 1020.02 1017.51 1015.91 1014.89 1014.43 1013.96 1013.30 1013.07 1012.97 1012.71 1012.58 1012.63 1012.58 1012.61 1012.47 1011.97 1011.77 1011.88 1012.58 1012.56 1012.31 1012.30 1011.86 1011.70 1012.27 1011.97 1012.44 1011.67
1013.55 1014.43 1015.20 1015.92 1016.26 1016.90 1017.45 1017.96 1018.76 1018.93 1019.27 1019.78 1019.64 1019.67 1019.71 1019.53 1020.06 1020.30 1020.25 1018.61 1017.25 1015.84 1015.26 1014.87 1014.47 1013.92 1013.32 1013.21 1013.02 1012.83 1012.93 1013.75 1013.57 1013.47 1013.12 1012.50 1012.47 1012.88 1012.92 1012.75 1012.78 1012.49 1013.16 1012.91 1013.07 1013.30 1012.14
1013.10 1013.95 1014.68 1015.33 1016.03 1016.60 1017.12 1017.78 1018.51 1018.89 1019.17 1019.96 1019.38 1019.54 1019.01 1019.43 1020.18 1020.29 1019.07 1017.99 1017.00 1016.29 1015.85 1015.55 1014.92 1014.55 1014.16 1013.97 1013.51 1013.38 1013.74 1014.56 1014.64 1014.02 1013.50 1013.17 1013.27 1013.26 1013.39 1013.09 1013.10 1013.36 1013.47 1014.65 1015.37 1016.02 1015.67
1012.67 1013.54 1014.19 1014.95 1015.71 1016.39 1016.89 1017.60 1018.30 1018.85 1019.27 1019.87 1019.11 1019.03 1019.24 1019.08 1019.66 1019.19 1018.52 1017.56 1016.78 1016.61 1016.56 1016.21 1015.83 1015.18 1014.73 1014.76 1014.40 1014.26 1014.41 1015.01 1015.61 1014.96 1014.07 1014.47 1014.18 1013.66 1013.74 1014.55 1014.80 1014.71 1014.95 1015.68 1016.22 1016.72 1016.81
1012.31 1013.07 1013.91 1014.53 1015.37 1016.00 1016.75 1017.21 1018.10 1018.62 1019.04 1018.69 1018.60 1018.54 1019.30 1018.90 1018.19 1017.92 1017.89 1017.58 1017.51 1017.38 1016.91 1016.62 1016.22 1015.86 1015.47 1015.28 1015.43 1015.24 1015.38 1016.25 1016.11 1015.65 1015.55 1015.33 1014.97 1014.45 1014.62 1015.35 1015.48 1015.26 1015.67 1016.20 1016.80 1017.53 1016.96
1011.54 1012.31 1013.46 1014.30 1014.88 1015.54 1016.31 1017.00 1017.73 1018.28 1018.57 1018.41 1018.35 1018.68 1019.39 1019.24 1018.06 1017.44 1017.46 1017.47 1017.86 1017.59 1017.28 1017.11 1016.92 1016.53 1016.08 1015.95 1015.98 1015.75 1015.92 1016.53 1016.75 1016.80 1017.01 1016.43 1015.82 1015.44 1015.22 1015.05 1015.60 1015.71 1015.99 1016.38 1016.51 1016.71 1015.43
1011.25 1011.88 1013.10 1013.87 1014.25 1015.01 1015.92 1016.59 1017.50 1017.93 1018.43 1018.38 1017.82 1017.69 1017.48 1017.77 1018.17 1017.65 1016.98 1017.22 1017.11 1017.44 1017.36 1017.23 1017.17 1016.72 1016.41 1016.19 1016.18 1016.18 1016.31 1016.77 1017.21 1017.48 1017.33 1016.96 1016.72 1016.68 1016.44 1016.27 1016.10 1016.07 1015.91 1015.70 1015.44 1015.09 1014.87
1010.94 1011.52 1012.28 1013.31 1013.98 1014.90 1015.58 1016.31 1016.73 1017.25 1018.34 1018.41 1017.96 1018.07 1018.07 1017.34 1017.22 1017.62 1017.22 1016.76 1016.60 1016.83 1016.78 1016.66 1016.67 1016.50 1016.48 1016.20 1016.30 1016.48 1016.72 1017.07 1017.25 1017.62 1017.61 1017.79 1017.48 1017.87 1017.50 1016.66 1016.16 1015.76 1015.13 1014.76 1014.64 1014.30 1013.79
1010.49 1011.09 1011.71 1012.68 1013.50 1014.29 1015.16 1015.87 1016.61 1017.09 1017.91 1017.51 1017.53 1018.06 1017.45 1017.43 1016.56 1016.72 1016.57 1016.43 1016.30 1016.30 1016.49 1016.42 1016.68 1016.65 1016.66 1016.43 1016.70 1017.21 1017.34 1017.74 1017.85 1018.07 1017.99 1018.25 1018.21 1018.28 1017.16 1016.54 1016.09 1015.24 1013.64 1013.65 1013.58 1013.52 1013.43
1009.87 1010.70 1011.21 1012.18 1012.96 1013.75 1014.67 1015.32 1016.05 1016.71 1017.06 1017.07 1017.28 1017.46 1017.12 1017.29 1016.57 1015.90 1016.03 1016.41 1016.39 1016.46 1016.61 1016.67 1016.67 1016.87 1017.18 1017.45 1017.78 1018.10 1018.16 1018.15 1018.15 1018.17 1018.48 1018.48 1018.81 1018.66 1017.69 1016.96 1015.67 1013.71 1013.58 1013.36 1013.42 1013.58 1013.54
1009.16 1010.10 1010.77 1011.43 1012.26 1013.08 1014.09 1014.87 1015.52 1016.33 1017.02 1017.45 1017.65 1017.20 1016.99 1016.75 1016.65 1016.39 1016.09 1015.87 1016.17 1016.48 1017.05 1017.04 1017.59 1017.73 1017.49 1017.58 1018.14 1018.23 1018.01 1018.12 1017.88 1018.17 1018.54 1019.01 1019.20 1019.02 1018.25 1016.64 1014.92 1013.77 1013.11 1013.75 1013.83 1013.95 1014.88
1008.39 1009.42 1010.14 1010.69 1011.64 1012.56 1013.50 1014.33 1015.13 1015.98 1016.62 1017.44 1017.76 1017.41 1017.25 1016.99 1016.74 1016.44 1016.19 1015.82 1015.68 1016.09 1016.62 1017.06 1018.28 1018.41 1017.91 1017.89 1018.25 1018.04 1017.21 1016.79 1017.45 1018.26 1019.16 1019.36 1019.57 1019.49 1018.81 1017.46 1015.25 1013.61 1014.36 1014.67 1014.74 1014.71 1015.87
1007.67 1008.59 1009.49 1010.12 1010.94 1011.99 1012.96 1013.88 1014.60 1015.42 1016.22 1017.02 1017.32 1017.64 1017.67 1017.63 1017.36 1017.24 1016.56 1016.28 1016.06 1016.23 1016.82 1017.68 1018.09 1018.28 1018.09 1018.17 1018.18 1017.81 1017.05 1016.75 1016.57 1016.86 1018.05 1018.69 1019.15 1018.79 1018.40 1017.27 1015.38 1014.02 1014.70 1015.29 1015.68 1016.06 1016.81
1006.95 1007.82 1008.79 1009.51 1010.34 1011.40 1012.35 1013.16 1014.11 1014.93 1015.77 1016.43 1017.13 1017.39 1017.74 1017.82 1018.05 1018.01 1017.78 1017.25 1017.00 1016.72 1016.82 1017.92 1018.24 1018.24 1018.24 1018.03 1017.84 1017.63 1016.94 1016.15 1015.99 1015.76 1016.22 1016.50 1017.11 1017.47 1017.27 1016.72 1015.31 1014.64 1015.25 1015.67 1016.16 1016.90 1017.77
1006.14 1006.95 1007.96 1008.84 1009.82 1010.82 1011.68 1012.55 1013.45 1014.38 1015.17 1016.16 1016.79 1017.29 1018.12 1018.23 1019.21 1018.85 1018.59 1018.60 1018.35 1017.96 1017.28 1017.59 1016.88 1016.87 1016.89 1017.07 1017.13 1016.97 1016.58 1016.01 1015.55 1015.09 1015.51 1015.36 1015.07 1015.33 1015.37 1014.49 1014.69 1014.97 1014.95 1015.90 1016.57 1017.23 1018.47
Wind_Speed
15 14 12 11 10 9 8 7 6 5 4 4 5 6 7 9 11 11 11 13 14 12 13 16 17 16 8 6 2 5 5 5 6 5 6 5 5 3 3 2 2 7 4 3 6 10 12
13 13 13 12 10 10 9 8 6 6 5 4 5 5 5 8 10 10 12 13 15 13 12 13 14 14 5 8 4 5 3 5 4 7 5 4 1 1 1 2 5 1 7 11 10 13 12
13 12 13 12 12 11 10 8 7 6 5 5 4 6 5 7 9 10 13 15 17 14 13 11 9 5 6 7 2 4 5 1 3 2 5 1 2 6 1 4 0 4 10 12 3 2 2
10 12 11 11 10 10 9 7 6 5 5 5 5 5 5 6 9 10 13 16 17 16 12 6 4 4 6 2 1 6 6 4 4 3 2 1 4 5 6 2 6 7 4 6 4 2 3
8 11 9 9 10 9 8 7 5 5 4 4 4 6 5 6 9 11 13 19 18 12 4 5 3 4 4 2 4 1 6 5 5 4 3 2 5 5 5 9 9 5 7 3 3 2 3
13 7 9 8 9 10 10 9 7 5 3 3 3 6 5 6 9 12 16 17 7 4 3 3 1 2 4 0 1 1 3 6 5 5 5 7 6 8 7 8 6 3 6 3 3 4 8
14 10 8 5 5 5 4 10 9 8 8 4 2 4 5 6 9 10 13 5 6 5 3 5 1 5 9 5 3 6 4 7 7 7 10 3 8 8 9 5 7 6 7 11 10 3 6
16 16 15 13 10 7 6 5 7 7 8 8 7 7 5 6 8 11 6 4 4 5 8 7 11 10 10 4 5 7 6 10 9 12 5 7 11 8 6 8 9 9 9 10 8 3 6
15 13 13 13 14 12 9 8 8 7 7 7 8 7 8 8 8 5 4 4 5 4 6 6 4 5 2 8 6 9 11 9 9 12 11 11 5 3 3 5 8 10 12 9 11 7 11
17 15 13 13 12 11 9 8 9 9 8 7 6 6 8 10 4 4 1 6 6 2 6 4 4 3 4 3 5 2 8 9 8 13 10 9 6 8 10 13 10 10 7 13 10 8 8
16 16 15 14 12 11 10 8 9 8 7 7 5 3 5 5 5 1 5 9 8 4 8 5 4 4 3 5 2 3 2 8 13 8 7 4 6 6 7 3 8 4 1 5 7 10 10
17 16 14 13 11 10 11 11 11 9 7 6 7 5 6 2 1 2 9 11 2 4 9 2 3 5 5 4 2 5 4 4 3 7 8 14 3 7 9 4 8 2 10 6 6 9 11
17 16 15 14 13 13 12 12 11 10 10 8 6 5 2 3 1 3 4 4 2 7 3 4 3 4 3 4 5 5 7 7 5 5 7 6 11 10 5 12 14 11 10 7 7 7 10
19 16 15 16 15 14 13 12 11 10 9 9 7 7 3 3 3 5 2 1 8 3 9 2 1 2 3 3 2 2 4 6 6 5 2 4 7 1 1 3 4 3 7 8 10 11 11
18 17 15 17 16 15 14 12 11 10 9 10 10 4 2 4 4 4 4 5 5 6 2 2 2 2 3 3 1 3 2 3 4 6 4 3 3 3 5 1 5 4 4 6 8 3 7
21 20 17 16 15 15 13 12 10 11 10 10 4 4 4 7 7 4 5 9 7 5 1 2 10 2 3 2 5 5 3 4 4 3 6 2 4 0 2 2 7 4 4 4 2 6 11
20 20 19 17 16 15 14 13 12 11 12 9 5 4 3 11 5 4 8 8 12 4 2 2 4 4 3 2 2 3 3 4 5 4 3 2 4 6 4 1 4 1 3 4 6 5 6
19 18 18 18 17 15 14 14 14 13 13 7 5 4 4 11 8 7 8 9 12 8 1 1 1 3 3 2 2 2 3 6 7 4 3 2 1 5 3 4 3 2 4 2 2 5 4
20 19 19 19 18 17 15 15 15 16 16 7 5 3 1 8 11 10 10 3 3 8 7 5 4 1 2 3 1 2 1 3 7 4 3 2 3 4 6 5 5 3 4 3 3 2 6
22 22 21 20 19 19 17 16 15 18 15 7 4 4 2 5 11 16 6 8 5 2 3 2 1 1 3 3 0 3 1 3 4 5 5 4 1 6 8 8 5 5 5 9 11 5 11
20 20 18 18 21 22 19 17 15 17 14 7 4 4 2 6 12 11 18 8 14 8 6 8 5 6 7 3 7 10 8 3 3 2 1 4 5 5 9 10 10 10 12 14 18 19 17
22 21 21 21 21 20 18 18 21 20 15 8 5 4 2 4 15 18 9 23 15 11 10 11 12 13 12 13 10 5 4 2 2 2 1 0 4 0 5 11 12 13 17 19 20 21 21
23 22 22 21 21 22 21 20 19 19 13 5 5 3 3 3 11 15 17 10 16 14 11 14 12 10 10 11 4 1 2 5 5 7 5 4 3 3 6 7 7 12 18 17 13 11 13
23 23 23 23 23 23 22 21 21 20 20 2 7 4 4 3 6 13 15 19 13 11 9 8 8 14 4 10 7 2 3 6 8 11 10 5 5 4 5 8 5 1 1 5 10 15 15
24 24 24 24 23 23 23 21 20 19 22 3 2 8 4 6 5 9 11 14 18 15 9 6 3 2 11 8 5 5 4 6 9 9 10 9 5 3 4 7 13 18 6 4 3 12 8
26 24 24 24 24 23 22 21 21 20 21 11 1 4 6 4 8 1 11 8 8 11 15 11 3 5 7 4 4 6 6 3 6 5 3 4 4 3 3 4 6 2 4 1 2 10 2
27 26 25 25 24 22 21 21 21 21 21 11 4 2 5 6 5 5 7 8 6 8 6 3 6 8 4 4 3 5 5 5 6 7 6 5 3 9 7 7 7 7 3 3 4 3 5
28 28 27 25 24 23 23 22 22 21 22 14 5 5 4 4 4 6 2 6 4 6 5 5 5 2 2 7 6 4 5 9 10 8 7 10 9 5 7 5 12 7 7 5 3 2 5
30 29 28 26 26 25 23 23 22 22 22 20 7 4 1 3 0 2 3 3 4 6 6 6 4 7 8 6 6 5 6 4 9 8 11 7 8 4 9 6 5 5 5 1 4 5 7
Wind_Direction
192 191 195 201 207 209 207 219 222 236 249 271 298 318 324 322 323 324 321 319 319 327 325 326 322 321 323 299 60 98 152 157 181 209 219 200 216 218 247 182 216 260 287 264 260 266 272
195 193 190 194 202 207 210 215 226 231 242 262 288 304 314 319 320 322 317 313 312 319 320 320 317 312 294 293 69 139 163 175 191 202 193 220 248 323 262 260 254 105 279 278 271 275 277
195 207 193 193 194 200 202 208 212 228 243 252 272 297 313 316 315 318 314 310 307 313 310 314 316 307 270 296 50 169 188 226 181 212 194 283 286 253 246 239 216 260 281 287 294 53 145
180 209 203 196 195 199 192 194 203 217 231 260 273 290 315 318 315 319 312 305 304 305 304 289 297 278 272 105 307 205 207 207 208 219 284 267 273 290 275 314 239 270 254 260 134 219 110
145 140 136 142 166 187 186 174 190 217 214 245 275 292 321 324 320 320 314 303 298 292 293 274 236 299 273 134 233 206 218 248 185 196 208 167 249 287 232 251 262 178 290 280 206 116 2
145 144 139 135 131 125 125 127 162 167 211 232 275 290 322 338 332 325 318 297 298 253 196 225 147 246 235 125 92 169 169 230 227 182 195 209 222 247 240 244 289 351 277 229 280 112 305
175 175 178 167 187 145 152 123 112 105 92 46 345 315 342 342 337 331 333 325 243 191 252 280 299 287 283 299 257 232 181 180 205 226 239 193 246 237 295 309 304 280 268 273 277 302 288
172 180 182 186 212 183 193 157 135 111 90 71 33 358 354 340 337 316 297 25 39 351 303 263 257 259 265 285 277 221 188 209 202 227 200 229 250 308 283 275 256 254 266 274 278 125 273
174 179 179 182 190 201 197 199 182 152 115 92 62 6 358 328 316 279 6 28 324 256 267 280 248 256 261 205 244 232 204 216 215 227 222 256 286 282 268 274 248 242 266 278 286 310 258
174 178 180 184 185 183 168 188 192 175 163 136 85 36 5 333 298 356 123 352 323 237 269 211 200 155 166 202 225 223 244 218 209 236 230 261 266 257 260 260 247 259 249 262 277 277 280
176 173 174 178 177 175 184 193 165 156 170 148 124 105 32 46 342 294 341 333 322 238 269 89 139 108 159 235 26 120 190 211 234 194 210 208 205 218 253 280 200 256 75 286 283 267 279
176 173 171 173 170 172 183 169 164 158 166 140 140 147 129 93 273 332 330 319 221 221 239 145 141 188 190 200 181 126 159 225 295 224 233 267 273 263 269 228 212 162 277 245 244 261 249
174 174 172 169 170 169 168 165 163 169 176 161 133 163 168 143 159 54 321 353 198 220 56 158 176 198 197 160 183 210 176 187 205 185 208 224 238 247 262 261 244 249 262 270 242 209 258
171 177 179 173 172 168 165 167 165 163 154 144 143 143 206 133 151 149 67 75 221 272 214 27 154 153 188 162 143 169 181 211 221 241 214 260 163 351 71 294 346 227 263 248 278 283 304
167 168 179 172 171 169 168 171 169 153 145 135 145 142 177 200 175 167 128 247 194 230 128 215 204 197 165 167 258 192 230 351 13 237 264 214 143 129 50 340 316 123 239 4 288 224 264
173 177 177 174 165 167 168 169 171 156 146 158 164 183 196 177 171 142 216 223 230 246 314 187 247 310 211 165 194 208 175 26 360 359 271 112 236 306 107 240 74 341 39 273 297 293 289
179 175 174 171 170 171 172 169 166 161 150 176 158 178 137 158 143 184 240 216 224 204 227 255 227 157 144 128 157 143 91 82 3 345 272 275 257 146 225 22 10 196 120 62 357 6 319
176 178 174 173 172 174 174 168 166 163 152 183 166 201 153 163 186 192 222 211 220 223 219 228 240 105 111 73 88 82 48 33 355 323 347 41 316 242 51 80 19 339 123 112 162 253 221
176 179 180 176 175 174 176 171 170 163 177 158 188 125 75 202 200 203 202 167 175 170 190 195 184 55 76 90 356 360 15 36 7 17 28 51 235 244 178 157 175 238 169 219 196 94 216
179 175 179 181 177 176 176 176 171 169 185 211 171 169 140 195 241 214 179 198 179 261 192 128 97 254 189 175 250 285 223 64 17 48 355 291 269 278 287 320 324 274 228 214 226 225 271
183 177 184 186 180 177 178 174 173 175 180 216 198 212 161 194 202 223 210 187 206 181 213 204 203 213 205 195 221 237 239 191 110 16 33 342 266 276 281 291 289 278 277 253 247 258 267
186 184 183 187 186 184 184 181 175 173 172 214 166 180 216 176 180 207 217 216 207 195 178 190 232 205 215 226 224 214 186 150 250 149 326 247 271 281 271 276 272 270 260 256 263 273 272
189 186 183 185 186 185 182 178 179 178 178 184 156 156 247 172 184 188 209 191 219 213 215 231 206 203 216 228 227 282 239 253 248 285 267 265 207 247 273 315 318 274 248 245 244 261 282
192 192 187 185 183 186 186 179 184 181 193 192 186 167 185 161 225 198 197 210 215 206 219 196 213 219 173 113 87 132 185 237 233 232 242 217 241 264 278 295 245 4 230 270 284 292 282
194 196 191 185 184 185 187 184 184 185 193 192 177 200 195 201 211 207 197 202 214 215 196 181 162 8 154 167 191 229 204 209 220 234 232 241 220 242 254 256 291 284 264 259 258 301 10
194 197 195 186 183 184 185 185 186 185 191 195 195 238 197 204 211 104 207 210 190 203 211 226 137 225 191 186 174 205 210 211 170 173 107 159 203 225 168 246 260 58 99 109 295 266 112
194 194 194 189 186 188 188 188 189 185 188 189 199 198 198 213 204 219 215 210 209 187 154 129 171 175 220 181 201 203 208 213 210 209 171 150 170 215 231 246 270 296 136 176 232 15 144
196 194 194 193 192 195 195 191 190 185 185 185 181 179 196 180 185 220 218 235 191 220 180 153 157 232 189 204 210 187 233 211 235 219 185 179 184 196 216 226 255 131 148 216 57 130 166
196 194 194 195 198 198 197 193 190 185 185 183 197 157 350 132 115 335 265 318 324 331 243 191 285 164 184 195 205 200 204 220 224 227 210 223 214 203 211 217 97 194 267 289 287 285 183